This demonstration page uses our WeatherBlox Daily Observations layout. Learn more.

Left ArrowRight Arrow

Hourly Observations for November 27, 2018

Temp ( °F °C ) Dew Point ( °F °C ) Humidity (%) Winds ( mph kmh ) Pressure ( in mb ) Visibility ( mi km ) Precip ( " mm )
12:52 am 00:52 Partly Cloudy 16 -8.9 7 -13.9 67 67 NNW 13 20 30.25 1025 10 16 0.00 0.00
1:52 am 01:52 Mostly Clear 14 -10 6 -14.4 71 71 NNW 8 13 30.26 1025 10 16 0.00 0.00
2:52 am 02:52 Clear 13 -10.6 6 -14.4 74 74 NW 8 13 30.27 1025 10 16 0.00 0.00
3:52 am 03:52 Clear 13 -10.6 6 -14.4 74 74 WNW 8 13 30.25 1025 10 16 0.00 0.00
4:52 am 04:52 Clear 10 -12.2 4 -15.6 76 76 NW 6 9 30.26 1025 10 16 0.00 0.00
5:52 am 05:52 Clear 11 -11.7 6 -14.4 81 81 N 6 9 30.27 1025 10 16 0.00 0.00
6:52 am 06:52 Clear 11 -11.7 6 -14.4 81 81 N 8 13 30.29 1026 10 16 0.00 0.00
7:52 am 07:52 Sunny 10 -12.2 4 -15.6 76 76 NW 6 9 30.29 1026 10 16 0.00 0.00
8:52 am 08:52 Mostly Sunny 13 -10.6 6 -14.4 74 74 NW 7 11 30.29 1026 10 16 0.00 0.00
9:52 am 09:52 Mostly Sunny 17 -8.3 8 -13.3 68 68 NW 6 9 30.27 1025 10 16 0.00 0.00
10:52 am 10:52 Mostly Sunny 20 -6.7 8 -13.3 60 60 WNW 3 6 30.27 1025 10 16 0.00 0.00
11:52 am 11:52 Partly Cloudy 23 -5 9 -12.8 55 55 WSW 3 6 30.24 1024 10 16 0.00 0.00
12:52 pm 12:52 Partly Cloudy 23 -5 9 -12.8 55 55 Calm 30.21 1023 10 16 0.00 0.00
1:52 pm 13:52 Partly Cloudy 26 -3.3 9 -12.8 48 48 Calm 30.18 1022 10 16 0.00 0.00
2:52 pm 14:52 Partly Cloudy 28 -2.2 10 -12.2 47 47 W 6 9 30.15 1021 10 16 0.00 0.00
3:52 pm 15:52 Partly Cloudy 26 -3.3 10 -12.2 51 51 S 7 11 30.14 1021 10 16 0.00 0.00
4:52 pm 16:52 Partly Cloudy 25 -3.9 11 -11.7 55 55 SW 9 15 30.13 1020 10 16 0.00 0.00
5:52 pm 17:52 Partly Cloudy 24 -4.4 11 -11.7 57 57 SSW 6 9 30.12 1020 10 16 0.00 0.00
6:52 pm 18:52 Mostly Cloudy 23 -5 12 -11.1 63 63 S 6 9 30.11 1020 10 16 0.00 0.00
7:02 pm 19:02 Cloudy 24 -4.4 12 -11.1 60 60 SSE 6 9 30.15 1021 10 16 0.00 0.00
7:52 pm 19:52 Cloudy 22 -5.6 12 -11.1 66 66 S 9 15 30.11 1020 10 16 0.00 0.00
8:52 pm 20:52 Cloudy 22 -5.6 12 -11.1 66 66 SSE 9 15 30.09 1019 10 16 0.00 0.00
9:52 pm 21:52 Cloudy 21 -6.1 13 -10.6 71 71 SSE 10 17 30.08 1019 10 16 0.00 0.00
10:41 pm 22:41 Cloudy 22 -5.6 13 -10.6 68 68 S 9 15 30.12 1020 10 16 0.00 0.00
10:52 pm 22:52 Cloudy 22 -5.6 13 -10.6 68 68 S 8 13 30.08 1019 10 16 0.00 0.00
11:52 pm 23:52 Cloudy 22 -5.6 14 -10 71 71 SSE 8 13 30.07 1018 10 16 0.00 0.00

Powered by AerisWeather